This is the latest recevied weather packets stored in our database for station/object K3CHZ. If no packets are shown the sender has not sent any weather packets the latest 10 day(s).
| Time | Temp. | Humidity | Pressure | Rain* | Wind** | Luminosity | Snow |
|---|---|---|---|---|---|---|---|
| 1777663346 | 17.78° C | 45% | 1011.9 hPa | 0 mm | - | - | - |
| 1777663043 | 17.78° C | 45% | 1011.9 hPa | 0 mm | - | - | - |
| 1777662741 | 17.78° C | 45% | 1012 hPa | 0 mm | - | - | - |
| 1777662443 | 17.78° C | 45% | 1012 hPa | 0 mm | - | - | - |
| 1777662143 | 17.78° C | 45% | 1012.2 hPa | 0 mm | - | - | - |
| 1777661843 | 17.22° C | 43% | 1012.1 hPa | 0 mm | - | - | - |
| 1777661542 | 17.22° C | 41% | 1012.2 hPa | 0 mm | - | - | - |
| 1777661242 | 17.22° C | 44% | 1012.3 hPa | 0 mm | - | - | - |
| 1777660942 | 17.22° C | 43% | 1012.3 hPa | 0 mm | - | - | - |
| 1777660643 | 17.22° C | 44% | 1012.5 hPa | 0 mm | - | - | - |
| 1777660342 | 17.22° C | 43% | 1012.4 hPa | 0 mm | - | - | - |
| 1777660039 | 17.22° C | 40% | 1012.7 hPa | 0 mm | - | - | - |
| 1777659739 | 17.22° C | 42% | 1012.7 hPa | 0 mm | - | - | - |
| 1777659440 | 16.67° C | 42% | 1012.8 hPa | 0 mm | - | - | - |
| 1777659140 | 16.67° C | 43% | 1012.8 hPa | 0 mm | - | - | - |
| 1777658839 | 16.67° C | 41% | 1012.9 hPa | 0 mm | - | - | - |
| 1777658539 | 16.67° C | 47% | 1012.9 hPa | 0 mm | - | - | - |
| 1777658240 | 16.67° C | 44% | 1013 hPa | 0 mm | - | - | - |
| 1777657939 | 16.67° C | 44% | 1013.1 hPa | 0 mm | - | - | - |
| 1777657639 | 16.67° C | 46% | 1013 hPa | 0 mm | - | - | - |
| 1777657339 | 16.67° C | 44% | 1013 hPa | 0 mm | - | - | - |
| 1777657039 | 16.67° C | 44% | 1013.1 hPa | 0 mm | - | - | - |
| 1777656739 | 16.67° C | 43% | 1013.1 hPa | 0 mm | - | - | - |
| 1777656439 | 16.67° C | 43% | 1013.3 hPa | 0 mm | - | - | - |
| 1777656139 | 16.67° C | 43% | 1013.3 hPa | 0 mm | - | - | - |
* Rain latest hour (hover to see other rain measurements)
** Current wind speed in m/s (hover to see current wind gust speed)